Regional Weather Roundup
Issued by NWS Jackson, KY

Home | Current Version | Previous Version | Text Only | Print | Product List | Glossary Off
Versions: 1 2 3 4 5 6 7 8 9 10 11 12 13 14 15 16 17 18 19 20 21 22 23 24 25 26 27 28 29 30 31 32 33 34 35 36 37 38 39 40 41 42 43 44 45 46 47 48 49 50

000
ASUS43 KJKL 180010
RWRJKL

EAST KENTUCKY HOURLY WEATHER ROUNDUP
NATIONAL WEATHER SERVICE JACKSON KY
800 PM EDT FRI APR 17 2015

NOTE: "FAIR" INDICATES FEW OR NO CLOUDS BELOW 12,000 FEET WITH
NO SIGNIFICANT WEATHER AND/OR OBSTRUCTIONS TO VISIBILITY.

* THESE REPORTS ARE NOT UNDER NWS QUALITY CONTROL AND MAY NOT
  REPORT WEATHER SUCH AS PRECIPITATION AND FOG.

KYZ079-080-083-085-087-088-110-112-115-119-120-180100
...EASTERN KENTUCKY...

CITY           SKY/WX    TMP DP  RH WIND       PRES   REMARKS
JACKSON        MOCLDY    70  54  56 CALM      30.01F
6HR MIN TEMP:  69; 6HR MAX TEMP:  76;

LONDON         CLOUDY    73  54  51 N6        30.01S
6HR MIN TEMP:  70; 6HR MAX TEMP:  77;

SOMERSET*      CLOUDY    70  54  56 CALM      30.02F
MONTICELLO*    MOCLDY    69  61  76 NW3       30.04S
6HR MIN TEMP:  69; 6HR MAX TEMP:  76;

MIDDLESBORO*   CLOUDY    69  58  67 CALM      30.01F
6HR MIN TEMP:  69; 6HR MAX TEMP:  75;

HARLAN APT*    CLOUDY    72  54  53 NW9       30.02R
BLACK MTN*       N/A     61  54  77 S1          N/A
PIKEVILLE APT* CLEAR     70  54  56 N5        30.02S
BIG SANDY*     MOCLDY    71  56  59 CALM      30.01S
MOREHEAD APT*  CLOUDY    70  57  64 CALM      30.03F
$$

KYZ035-036-041-042-044-050-067-078-099-180100
...CENTRAL KENTUCKY...

CITY           SKY/WX    TMP DP  RH WIND       PRES   REMARKS
MT STERLING*   CLOUDY    68  59  73 CALM      30.03S
FLEMING/MASON* CLEAR     68  59  73 CALM      30.02F
DANVILLE*      MOCLDY    68  57  68 CALM      30.03S
RICHMOND*      MOCLDY    70  57  64 CALM      30.01F
LEXINGTON      CLOUDY    69  58  67 CALM      30.02S
6HR MIN TEMP:  69; 6HR MAX TEMP:  73;

FRANKFORT      CLOUDY    69  57  65 S5        30.00S
6HR MIN TEMP:  69; 6HR MAX TEMP:  74;

$$

KYZ091>093-OHZ055-061-077-WVZ005-015-034-035-042-180100
...SOUTHERN OHIO/WEST VIRGINIA...

CITY           SKY/WX    TMP DP  RH WIND       PRES   REMARKS
COVINGTON      MOCLDY    71  47  42 N5        30.01F
COLUMBUS       MOCLDY    68  41  37 N7        30.01S
DAYTON         MOCLDY    68  42  38 NW6       30.03S
WILMINGTON     MOCLDY    69  40  34 NE3       30.02S
HUNTINGTON     CLOUDY    72  55  55 CALM      29.99S
CHARLESTON     CLOUDY    72  54  53 NW3       29.99F
PINEVILLE*     MOCLDY    68  57  68 MISG      30.06S
BECKLEY        MOCLDY    66  51  58 N6        30.05S
BLUEFIELD      MOCLDY    70  46  42 CALM      30.06R
$$

VAZ002-007-008-TNZ017-027-036-066-071-180100
...SOUTHWEST VIRGINIA/EAST TENNESSEE...

CITY           SKY/WX    TMP DP  RH WIND       PRES   REMARKS
WISE*          MOCLDY    66  50  55 N3        30.07S
JONESVILLE*    MOCLDY    70  59  68 SW6       30.04S
ABINGDON*      CLOUDY    70  55  58 W3        30.03S
BRISTOL        CLOUDY    68  58  70 SW5       30.02R
KNOXVILLE      CLOUDY    66  60  81 CALM      30.00F
OAK RIDGE      CLOUDY    70  60  70 CALM      30.02F
CROSSVILLE     CLOUDY    66  57  72 CALM      30.04R
NASHVILLE      MOCLDY    72  60  66 CALM      30.01S
$$

...KEY TO REMARKS...
VSB - VISIBILITY IN MILES
WCI - WIND CHILL INDEX
HX  - HEAT INDEX

$$


USA.gov is the U.S. government's official web portal to all federal, state and local government web resources and services.